This is the latest recevied weather packets stored in our database for station/object IZ8XTV-13. If no packets are shown the sender has not sent any weather packets the latest 1 day(s).
| Time | Temp. | Humidity | Pressure | Rain* | Wind** | Luminosity | Snow |
|---|---|---|---|---|---|---|---|
| 1778014342 | 16.67° C | 97% | 1016.7 hPa | 0 mm | 0 m/s | - | - |
| 1778013729 | 16.67° C | 96% | 1016.7 hPa | 0 mm | 0 m/s | - | - |
| 1778013118 | 16.67° C | 94% | 1016.7 hPa | 0 mm | 0 m/s | - | - |
| 1778012507 | 16.67° C | 94% | 1016.7 hPa | 0 mm | 0 m/s | - | - |
| 1778011893 | 17.22° C | 92% | 1016.7 hPa | 0 mm | 0 m/s | - | - |
| 1778011282 | 17.22° C | 92% | 1016.8 hPa | 0 mm | 0 m/s | - | - |
| 1778010671 | 17.22° C | 91% | 1016.7 hPa | 0 mm | 0 m/s | - | - |
| 1778010059 | 17.22° C | 92% | 1016.6 hPa | 0 mm | 0 m/s | - | - |
| 1778009447 | 17.22° C | 92% | 1016.8 hPa | 0 mm | 0 m/s | - | - |
| 1778008835 | 17.22° C | 91% | 1016.6 hPa | 0 mm | 0 m/s | - | - |
| 1778008222 | 17.22° C | 91% | 1016.5 hPa | 0 mm | 0 m/s | - | - |
| 1778007609 | 17.78° C | 91% | 1016.5 hPa | 0 mm | 0 m/s | - | - |
| 1778006997 | 17.22° C | 90% | 1016.3 hPa | 0 mm | 0 m/s | - | - |
| 1778006384 | 17.22° C | 92% | 1016.2 hPa | 0 mm | 0 m/s | - | - |
| 1778005771 | 17.78° C | 90% | 1016.2 hPa | 0 mm | 0 m/s | - | - |
| 1778005159 | 17.78° C | 93% | 1016.1 hPa | 0 mm | 0 m/s | - | - |
| 1778004546 | 17.78° C | 90% | 1016.1 hPa | 0 mm | 0 m/s | - | - |
| 1778003935 | 18.33° C | 90% | 1016 hPa | 0 mm | 0 m/s | - | - |
| 1778003323 | 17.78° C | 90% | 1016 hPa | 0 mm | 0 m/s | - | - |
| 1778002711 | 18.33° C | 89% | 1016.1 hPa | 0 mm | 0 m/s | - | - |
| 1778002100 | 18.33° C | 90% | 1016.1 hPa | 0 mm | 0 m/s | - | - |
| 1778001489 | 18.33° C | 89% | 1016.1 hPa | 0 mm | 0 m/s | - | - |
| 1778000878 | 18.33° C | 90% | 1016.3 hPa | 0 mm | 0 m/s | - | - |
| 1778000267 | 18.33° C | 88% | 1016.3 hPa | 0 mm | 0 m/s | - | - |
| 1777999655 | 18.89° C | 87% | 1016.4 hPa | 0 mm | 0 m/s | - | - |
* Rain latest hour (hover to see other rain measurements)
** Current wind speed in m/s (hover to see current wind gust speed)